Вернуться в каталог

STARLINK-33987

АктивенСвязьVLEO
NORAD 63873·PAYLOAD·🇺🇸 United States

Запущен May 10, 2025 с Vandenberg Space Force Base

Loading…

Ближайшие Пролёты (ближайшие 24 часа)

TLE

СвежийSource: CelesTrak SupGP

Эпоха: Sep 14, 2026, 13:58 UTC

1 63873C 25094K   26257.58243056  .00007936  00000+0  26910-3 0  2574
2 63873  69.9994 116.6182 0002824 259.2107 224.8592 15.30403910    11

Отслеживайте STARLINK-33987 в реальном времени с AllMySat

Download on the App Store